www.pogodaiklimat.ru

Погода и климат >> Архив погоды >> Аргентина >> Вилла Долорес


ПОГОДА в Вилла Долорес

  • Прогноз погоды в Вилла Долорес
  • Монитор погоды в Вилла Долорес

АРХИВ ПОГОДЫ в Вилла Долорес

Время (UTC), дата Ветер
(напр.,м/с)
 
Видим.   Явления Облачность Т
(С)
Тd
(С)
f
(%)
Тe
(С)
Тes
(С)
Комфортность P
(гПа)
Po
(гПа)
Тmin
(С)
Tmax
(С)
R
(мм)
R24
(мм)
S
(см)
12 16.07 СВ 1 20 км дым ясно +8.6 +6.5 87 +8 +8 1022.4 955.0 +7.0 +13.5
15 16.07 С 8 20 км дым 3/3 1500 м
[Sc]
+19.7 +5.0 38 +20 +21 1020.8 954.8
18 16.07 С 9 20 км пыльный позёмок 5/5 1200 м
[Cu Sc]
+20.6 +7.4 42 +21 +22 комфорт 1018.2 952.6
21 16.07 СЗ 5 20 км мгла 3/3 1200 м
[Sc]
+19.0 +7.2 46 +19 +19 1017.9 952.0
00 17.07 СЗ 4 20 км мгла ясно +14.3 +6.7 60 +13 +13 1020.0 953.2 +8.4 +21.3
03 17.07 В 3 30 км 1/1 1500 м
[Sc]
+12.4 +7.9 74 +11 +11 1020.5 954.6
06 17.07 В 2 30 км ясно +12.4 +7.0 70 +12 +12 1019.7 954.0
09 17.07 В 2 30 км ясно +12.0 +6.7 70 +11 +11 1018.3 952.5
12 17.07 С 4 10 км дым 6/0
[Ci fib]
+14.5 +7.0 61 +13 +14 1018.2 952.2 +10.5 +14.5
15 17.07 СЗ 1 10 км дым 9/0
[Cs]
+17.9 +7.1 49 +19 +26 1017.6 951.8
18 17.07 С 8 10 км дым 9/0
[Cs]
+22.6 +5.2 32 +23 +24 комфорт 1013.5 948.4
21 17.07 С 5 10 км мгла 9/0
[Ac lent Cs]
+20.9 +5.0 35 +22 +22 комфорт 1013.0 947.8
00 18.07 С 8 10 км мгла 9/0
[Ac As Cs]
+17.8 +6.0 46 +17 +17 1013.0 947.7 +14.5 +23.2
03 18.07 С 4 10 км мгла 9/0
[Cs]
+17.0 +5.4 46 +17 +17 1013.5 948.5
06 18.07 ЮВ 2 10 км мгла 9/0
[Cs]
+13.6 +5.9 60 +14 +14 1013.4 948.5
09 18.07 ЮВ 3 10 км мгла 4/0
[Cs]
+10.2 +5.1 71 +8 +8 1014.7 949.2
12 18.07 В 2 20 км дым 4/0
[Ci]
+10.4 +7.2 81 +9 +9 1017.0 950.9 +9.2 +19.0
15 18.07 Ю 7 30 км 8/8 1200 м
[Sc]
+14.8 +2.1 42 +13 +14 1020.3 954.4
18 18.07 штиль 0 30 км 10/10 1200 м
[Sc]
+14.4 -0.4 36 +14 +14 1020.4 954.2
21 18.07 ЮЗ 3 30 км 4/4 1200 м
[Sc]
+16.2 -5.3 22 +16 +16 1021.0 954.5
00 19.07 Ю 3 10 км мгла 8/8 1200 м
[Sc]
+10.1 -0.3 48 +8 +8 1023.7 956.4 +10.1 +17.8
03 19.07 В 1 10 км мгла 9/9 1200 м
[Sc]
+8.4 -1.4 50 +8 +8 1023.6 956.6
06 19.07 ЮВ 3 10 км дым 8/8 1200 м
[Sc]
+17.9 +11.3 65 +18 +18 1021.5 955.7
09 19.07 ЮВ 1 10 км дым 4/4 1200 м
[Sc]
+5.9 +0.4 68 +5 +5 1020.4 953.6
12 19.07 штиль 0 10 км дым 4/0
[Cs]
+4.6 0.0 72 +4 +4 1020.6 952.8 +3.6 +10.5
15 19.07 штиль 0 15 км дым 6/0
[Cs]
+14.8 -1.1 34 +15 +23 1018.3 951.7
18 19.07 З 2 20 км дым 6/0
[Cs]
+19.2 +0.5 28 +20 +26 1012.9 947.0
21 19.07 СЗ 3 20 км дым 9/0
[Cs]
+18.8 +4.2 38 +19 +19 1012.5 946.4
00 20.07 С 1 20 км дым ясно +14.9 +5.3 53 +16 +16 1013.1 946.4 +4.6 +20.4
03 20.07 ЮВ 3 20 км дым ясно +12.4 +5.8 64 +11 +11 1012.5 946.6
06 20.07 В 3 30 км 4/0
[Cs]
+10.0 +7.6 85 +8 +8 1011.6 946.0
09 20.07 ЮВ 4 30 км 4/0
[Cs]
+9.8 +6.9 82 +7 +7 1011.5 945.8
12 20.07 В 4 20 км дым 8/0
[Ac As Cs]
+9.4 +7.4 87 +7 +7 1010.8 944.8 +7.0 +15.8
15 20.07 ЮЗ 3 20 км дым 8/0
[Cs]
+18.6 +10.3 58 +19 +24 1009.3 944.1
18 20.07 СЗ 10 30 км 6/0
[Cs]
+23.2 +10.6 45 +25 +25 комфорт 1005.4 940.6
21 20.07 С 7 30 км 9/0
[Cs]
+21.5 +11.6 53 +24 +24 комфорт 1003.9 939.0
00 21.07 С 6 30 км 9/0
[Ac As Cs]
+19.4 +12.5 64 +20 +20 1001.8 936.9 +9.4 +23.6
03 21.07 С 8 30 км 9/0
[Cs]
+19.7 +12.3 62 +21 +21 комфорт 1000.7 936.9
06 21.07 С 4 30 км 9/0
[Cs]
+17.2 +13.4 78 +17 +17 998.6 935.0
09 21.07 В 1 20 км дым 9/0
[Ac As Cs]
+12.4 +11.3 93 +12 +12 998.8 934.5
12 21.07 ЮВ 1 1500 м дымка 10/0
[Ac As Cs]
+11.6 +11.0 96 999.6
15 21.07 ЮВ 2 15 км мгла туман 10/0
[Cs]
+20.8 +15.4 71 +25 +31 комфорт 999.6 936.9
18 21.07 Ю 5 15 км мгла 9/0
[Cs]
+20.1 +10.7 55 +21 +24 комфорт 1000.2 936.2
21 21.07 ЮЗ 3 15 км мгла 10/0
[Cs]
+15.8 +3.1 43 +15 +16 1004.0 938.8
00 22.07 ЮВ 3 15 км мгла 10/0
[Cs]
+12.0 -1.2 40 +11 +11 1008.9 942.9 +11.4 +23.4
03 22.07 штиль 0 20 км дым 10/0
[Ac As Cs]
+9.4 +3.4 66 +9 +9 1011.1 945.7
06 22.07 ЮВ 1 20 км дым 10/10 1200 м
[Sc]
+8.4 -0.2 55 +8 +8 1013.4 947.6
09 22.07 штиль 0 20 км дым 10/10 1500 м
[Sc]
+8.6 -0.5 53 +8 +8 1014.3 948.0
12 22.07 З 2 10 км дым 9/3 1200 м
[Sc Ac As]
+9.8 -1.4 46 +9 +9 1017.8 951.0 +7.7 +12.3
15 22.07 Ю 2 10 км дым 10/3 1200 м
[Sc Ac As]
+11.6 -2.0 39 +11 +13 1020.8 953.8
18 22.07 ЮЗ 4 10 км дым 10/4 1200 м
[Sc Ac As]
+14.1 -4.4 27 +13 +14 1020.5 953.7
21 22.07 Ю 1 20 км дым 8/1 1500 м
[Sc Ac trans]
+11.5 -3.6 35 +13 +13 1020.5 953.3
00 23.07 ЮВ 3 20 км дым 10/6 1500 м
[Sc Ac As]
+9.4 -3.8 39 +8 +8 1023.4 956.0 +9.4 +14.5
03 23.07 ЮВ 3 20 км дым 6/6 900 м
[Sc]
+6.6 -3.1 50 +4 +4 1024.5 956.9

 

Местоположение метеостанции Вилла Долорес (Аргентина): широта -31.95 долгота -65.13 высота над уровнем моря 569 м.

В архиве по умолчанию представлена погода в Вилла Долорес за последнюю неделю. Архивные данные за месяц целиком и за предыдущие месяцы, начиная с января 2011 года, Вы можете получить, выбрав интересующий диапазон дат из раскрывающегося списка и нажав кнопку "Ввод!".


*Определитесь, кто Вы:
робот инопланетянин человек

Внимание! Время в таблицах - всемирное. Для получения местного времени необходимо прибавить поправку, которая равна -3 ч.

Смотрите также архив погоды в соседних городах и на ближайших метеорологических станциях:

Погода в Кордове (Аргентина) (113 км)
Погода в Пиларе (Аргентина) (122 км)
Погода в Рио-Куарто (Аргентина) (150 км)
Погода в Сан-Луисе (Аргентина) (185 км)
Погода в Вилья Рейнольдс (Аргентина) (199 км)
Погода в Чамикале (Аргентина) (208 км)
Погода в Вилла де Мария дель Рио Секо (Аргентина) (267 км)
Погода в Маркос Хуарес (Аргентина) (292 км)
Погода в Лабоулайе (Аргентина) (293 км)
Погода в Сан-Хуане (Аргентина) (316 км)

Пояснения к столбцам:

Ветер - указаны скорость ветра в м/с - средняя за 10 мин, порывы в срок и между сроками (в фигурных скобках) и направление, откуда дует ветер: С - северный, СВ - северо-восточный, В - восточный, ЮВ - юго-восточный, Ю - южный, ЮЗ - юго-западный, З - западный, СЗ - северо-западный.
Видимость - горизонтальная дальность видимости в метрах или километрах. При видимости от 1 до 10 км при отсутствии осадков обычно наблюдается дымка, при ухудшении видимости до 1 км и менее - туман. В сухую погоду видимость может ухудшаться дымом, пылью или мглою.
Явления - указаны атмосферные явления, наблюдавшиеся в срок или в последний час перед сроком; фигурными скобками обозначены явления, наблюдавшиеся между сроками (за 1-3 часа до срока); квадратными скобками обозначены град или гололедные отложения с указанием их диаметра в мм.
Облачность - указаны через наклонную черту общая и нижняя облачность в баллах и высота нижней границы облаков в метрах; квадратными скобками обозначены формы облаков: Ci - перистые, Cs - перисто-слоистые, Cc - перисто-кучевые, Ac - высококучевые, As - высокослоистые, Sc - слоисто-кучевые, Ns - слоисто-дождевые, Cu - кучевые, Cb - кучево-дождевые. Подробнее классификацию облаков см. в Атласе облаков (PDF).
T - Температура воздуха - температура, измеренная на высоте 2 м над землей.
Td - Температура точки росы - температура, при понижении до которой содержащийся в воздухе водяной пар достигнет насыщения.
f - Относительная влажность воздуха - влажноcть воздуха, измеренная на высоте 2 м над землей.
Te - Эффективная температура - температура, которую ощущает одетый по сезону человек в тени. Характеристика душности погоды. При расчете учитывается влияние влажности воздуха и скорости ветра на теплоощущения человека.
Tes - Эффективная температура на солнце - температура, которую ощущает человек, с поправкой на солнечный нагрев. Характеристика знойности погоды. Зависит от высоты солнца над горизонтом, облачности и скорости ветра. Ночью, в пасмурную погоду, а также при ветре 12 м/с и более поправка равна нулю.
P - Атмосферное давление - приведенное к уровню моря атмосферное давление.
Po - Атмосферное давление - измеренное на уровне метеостанции атмосферное давление.
Tmin - Минимальная температура - минимум температуры воздуха на высоте 2 м над землей.
Tmax - Максимальная температура - максимум температуры воздуха на высоте 2 м над землей.
R - Количество осадков - Количество выпавших осадков за период времени, мм. При наведении курсора мыши на число - период времени, за который выпало указанное количество осадков.
R24 - Количество осадков - Количество выпавших осадков за 24 часа, мм.
S - Снежный покров - Высота снежного покрова, см. При наведении курсора мыши на число - состояние снежного покрова и степень покрытия местности в баллах.